SV1BYK-2 Weather Reports


Display with metric or nautical units.
time (UTC)temp
F
wind
direction
speed
MPH
gust
MPH
rain 1hr
in
rain 24hr
in
rain mn
in
humidity
%
barometer
mb
20260507040215 60 321 1.0 2.0 0.00 0.00 0.00 61 1010.8
20260507035616 60 327 0.0 2.0 0.00 0.00 0.00 61 1010.8
20260507034503 60 315 0.0 2.0 0.00 0.00 0.00 61 1011.0
20260507033604 60 315 1.0 2.0 0.00 0.00 0.00 60 1010.7
20260507032913 60 315 0.0 2.0 0.00 0.00 0.00 60 1010.6
20260507032016 60 315 0.0 2.0 0.00 0.00 0.00 60 1010.7
20260507031113 60 325 1.0 2.0 0.00 0.00 0.00 60 1010.9
20260507030004 60 337 0.0 2.0 0.00 0.00 0.00 61 1010.5
20260507025617 60 337 0.0 2.0 0.00 0.00 0.00 60 1010.6
20260507024503 60 337 0.0 2.0 0.00 0.00 0.00 60 1010.7
20260507023604 60 337 0.0 2.0 0.00 0.00 0.00 60 1010.4
20260507022914 60 0 0.0 0.0 0.00 0.00 0.00 60 1010.7
20260507022016 60 337 0.0 2.0 0.00 0.00 0.00 59 1010.5
20260507020903 60 0 0.0 0.0 0.00 0.00 0.00 59 1010.6
20260507020004 60 337 0.0 2.0 0.00 0.00 0.00 59 1010.2
20260507015618 60 337 0.0 2.0 0.00 0.00 0.00 59 1010.3
20260507014715 61 332 0.0 2.0 0.00 0.00 0.00 58 1010.2
20260507013817 61 315 1.0 2.0 0.00 0.00 0.00 57 1010.3
20260507012704 61 315 0.0 2.0 0.00 0.00 0.00 57 1010.0
20260507011803 61 315 0.0 2.0 0.00 0.00 0.00 57 1010.1
20260507010004 62 315 0.0 2.0 0.00 0.00 0.00 56 1009.8
20260507005403 62 315 0.0 2.0 0.00 0.00 0.00 56 1009.8
20260507004503 62 315 0.0 2.0 0.00 0.00 0.00 55 1009.9
20260507003818 62 310 1.0 4.0 0.00 0.00 0.00 55 1009.6
20260507002915 63 292 1.0 6.0 0.00 0.00 0.00 55 1009.7
20260507002018 62 292 1.0 6.0 0.00 0.00 0.00 55 1009.8
20260507000903 62 292 0.0 2.0 0.00 0.00 0.00 56 1009.9
20260507000004 62 292 0.0 2.0 0.00 0.00 0.00 57 1010.0
20260506235403 62 292 0.0 2.0 0.00 0.00 0.00 57 1009.6
20260506234716 62 0 0.0 0.0 0.00 0.00 0.00 56 1009.9
20260506233604 63 292 0.0 2.0 0.00 0.00 0.00 55 1010.3
20260506232916 63 0 0.0 0.0 0.00 0.00 0.00 56 1010.3
20260506231803 63 292 0.0 2.0 0.00 0.00 0.00 55 1010.5
20260506230903 63 292 0.0 2.0 0.00 0.00 0.00 55 1010.5
20260506230213 63 292 0.0 2.0 0.00 0.00 0.00 55 1010.2
20260506225614 64 292 0.0 2.0 0.00 0.00 0.00 54 1010.5
20260506224717 64 292 0.0 2.0 0.00 0.00 0.00 54 1010.6
20260506223814 64 292 1.0 2.0 0.00 0.00 0.00 54 1010.7
20260506222704 65 0 0.0 0.0 0.00 0.00 0.00 54 1010.4
20260506222014 65 292 0.0 2.0 0.00 0.00 0.00 53 1010.5
20260506221116 66 292 1.0 2.0 0.00 0.00 0.00 52 1010.6
20260506220213 66 292 1.0 2.0 0.00 0.00 0.00 54 1010.5
20260506215403 66 0 0.0 0.0 0.00 0.00 0.00 54 1010.7
20260506214504 66 0 0.0 0.0 0.00 0.00 0.00 53 1010.7
20260506213604 66 0 0.0 0.0 0.00 0.00 0.00 52 1010.8
20260506212703 66 292 0.0 2.0 0.00 0.00 0.00 52 1010.8
20260506211803 67 292 0.0 2.0 0.00 0.00 0.00 51 1010.7
20260506211117 66 292 0.0 2.0 0.00 0.00 0.00 51 1010.8
20260506210219 66 0 0.0 0.0 0.00 0.00 0.00 51 1010.8
20260506205403 66 292 0.0 2.0 0.00 0.00 0.00 50 1011.0
20260506204504 67 292 0.0 2.0 0.00 0.00 0.00 50 1011.0
20260506203604 67 286 1.0 4.0 0.00 0.00 0.00 49 1010.9
20260506202918 67 285 2.0 4.0 0.00 0.00 0.00 49 1011.1
20260506201804 67 262 2.0 4.0 0.00 0.00 0.00 48 1010.9
20260506200903 68 264 2.0 4.0 0.00 0.00 0.00 47 1011.0
20260506200004 68 282 2.0 4.0 0.00 0.00 0.00 45 1011.0
20260506195616 68 283 3.0 4.0 0.00 0.00 0.00 45 1010.7
20260506194504 69 270 4.0 6.0 0.00 0.00 0.00 43 1010.6
20260506193603 69 267 2.0 4.0 0.00 0.00 0.00 42 1010.5
20260506192703 69 277 3.0 4.0 0.00 0.00 0.00 42 1010.5
20260506191803 70 283 3.0 4.0 0.00 0.00 0.00 42 1010.5
20260506191113 70 272 3.0 4.0 0.00 0.00 0.00 42 1010.2
20260506190004 70 292 2.0 4.0 0.00 0.00 0.00 42 1010.2
20260506185617 70 292 2.0 4.0 0.00 0.00 0.00 42 1010.1
20260506184714 70 292 2.0 4.0 0.00 0.00 0.00 42 1010.2
20260506183604 70 292 2.0 4.0 0.00 0.00 0.00 42 1009.9
20260506182703 70 290 3.0 4.0 0.00 0.00 0.00 42 1009.8
20260506182016 70 280 2.0 4.0 0.00 0.00 0.00 42 1009.8
20260506181114 70 274 2.0 4.0 0.00 0.00 0.00 41 1009.8
20260506180216 70 275 2.0 6.0 0.00 0.00 0.00 42 1009.8
20260506175403 70 268 4.0 4.0 0.00 0.00 0.00 42 1009.5
20260506174504 70 258 2.0 6.0 0.00 0.00 0.00 42 1009.7
20260506173603 70 269 2.0 4.0 0.00 0.00 0.00 42 1009.6
20260506172915 70 272 2.0 6.0 0.00 0.00 0.00 43 1009.7
20260506171803 71 261 3.0 4.0 0.00 0.00 0.00 42 1009.2
20260506171114 71 255 4.0 6.0 0.00 0.00 0.00 42 1009.4
20260506170004 71 266 4.0 7.0 0.00 0.00 0.00 42 1009.5
20260506165613 71 250 5.0 7.0 0.00 0.00 0.00 41 1009.3
20260506164504 72 264 3.0 7.0 0.00 0.00 0.00 41 1009.7
20260506163813 73 260 2.0 8.0 0.00 0.00 0.00 39 1009.3
20260506162703 73 269 2.0 8.0 0.00 0.00 0.00 40 1009.5
20260506162018 73 272 4.0 8.0 0.00 0.00 0.00 38 1009.3
20260506160903 74 254 4.0 9.0 0.00 0.00 0.00 37 1009.4
20260506160003 75 240 2.0 9.0 0.00 0.00 0.00 35 1009.2
20260506155403 76 232 2.0 8.0 0.00 0.00 0.00 34 1009.3
20260506154716 75 227 3.0 9.0 0.00 0.00 0.00 35 1009.2
20260506153813 75 230 2.0 9.0 0.00 0.00 0.00 34 1009.3
20260506152703 75 251 2.0 11.0 0.00 0.00 0.00 34 1009.6
20260506151803 75 210 2.0 8.0 0.00 0.00 0.00 34 1009.5
20260506151115 76 139 3.0 9.0 0.00 0.00 0.00 34 1009.7
20260506150213 76 247 4.0 9.0 0.00 0.00 0.00 35 1009.6
20260506145403 76 253 2.0 11.0 0.00 0.00 0.00 34 1009.7
20260506144504 76 217 5.0 9.0 0.00 0.00 0.00 35 1009.6
20260506143814 76 213 4.0 9.0 0.00 0.00 0.00 35 1009.7
20260506142703 75 217 4.0 13.0 0.00 0.00 0.00 36 1009.5
20260506142014 75 215 8.0 13.0 0.00 0.00 0.00 38 1009.6
20260506141116 76 262 2.0 9.0 0.00 0.00 0.00 38 1009.6
20260506140213 76 205 2.0 11.0 0.00 0.00 0.00 38 1009.8
20260506135403 74 251 3.0 11.0 0.00 0.00 0.00 41 1009.9
20260506134504 74 215 3.0 9.0 0.00 0.00 0.00 43 1009.9
20260506133815 74 251 4.0 13.0 0.00 0.00 0.00 44 1010.0
20260506132703 75 237 5.0 9.0 0.00 0.00 0.00 44 1009.8
20260506131804 75 235 3.0 11.0 0.00 0.00 0.00 43 1009.8
20260506131117 75 232 4.0 9.0 0.00 0.00 0.00 44 1009.9
20260506130214 75 186 3.0 11.0 0.00 0.00 0.00 42 1009.9
20260506125403 75 213 4.0 11.0 0.00 0.00 0.00 40 1009.6
20260506124504 77 122 3.0 11.0 0.00 0.00 0.00 39 1009.8
20260506123815 77 237 3.0 11.0 0.00 0.00 0.00 38 1009.7
20260506122918 76 221 4.0 11.0 0.00 0.00 0.00 41 1009.8
20260506122015 75 239 4.0 11.0 0.00 0.00 0.00 42 1010.0
20260506120903 75 243 3.0 11.0 0.00 0.00 0.00 43 1010.0
20260506120004 74 217 4.0 11.0 0.00 0.00 0.00 44 1010.2
20260506115403 74 211 4.0 11.0 0.00 0.00 0.00 43 1010.2
20260506114714 74 186 4.0 9.0 0.00 0.00 0.00 43 1009.9
20260506113816 74 105 4.0 9.0 0.00 0.00 0.00 44 1010.1
20260506112913 74 133 2.0 11.0 0.00 0.00 0.00 49 1010.4
20260506111803 74 210 4.0 11.0 0.00 0.00 0.00 46 1010.2
20260506111113 75 126 4.0 11.0 0.00 0.00 0.00 42 1010.0
20260506110215 75 110 4.0 11.0 0.00 0.00 0.00 39 1010.1
20260506105404 76 98 5.0 9.0 0.00 0.00 0.00 38 1010.0
20260506104504 77 224 4.0 9.0 0.00 0.00 0.00 37 1010.1
20260506103817 76 224 4.0 11.0 0.00 0.00 0.00 39 1010.2
20260506102914 76 121 4.0 8.0 0.00 0.00 0.00 38 1010.2
20260506101803 77 117 3.0 8.0 0.00 0.00 0.00 37 1010.2
20260506100903 76 113 4.0 8.0 0.00 0.00 0.00 38 1010.3
20260506100004 76 153 2.0 9.0 0.00 0.00 0.00 39 1010.3
20260506095618 76 156 2.0 9.0 0.00 0.00 0.00 39 1010.3
20260506094715 75 224 2.0 9.0 0.00 0.00 0.00 42 1010.3
20260506093603 76 110 2.0 8.0 0.00 0.00 0.00 42 1010.6
20260506092915 76 225 2.0 6.0 0.00 0.00 0.00 42 1010.6
20260506091803 76 105 2.0 7.0 0.00 0.00 0.00 43 1010.4
20260506091114 76 107 3.0 8.0 0.00 0.00 0.00 41 1010.3
20260506090217 76 142 2.0 8.0 0.00 0.00 0.00 42 1010.3
20260506085613 76 105 4.0 7.0 0.00 0.00 0.00 42 1010.2
20260506084504 76 234 2.0 6.0 0.00 0.00 0.00 41 1010.2
20260506083813 75 101 2.0 4.0 0.00 0.00 0.00 41 1010.2
20260506082916 76 104 2.0 7.0 0.00 0.00 0.00 38 1010.4
20260506081803 76 94 3.0 7.0 0.00 0.00 0.00 38 1010.2
20260506080903 76 98 3.0 6.0 0.00 0.00 0.00 38 1010.4
20260506080217 75 72 2.0 8.0 0.00 0.00 0.00 39 1010.2
20260506072703 75 239 0.0 4.0 0.00 0.00 0.00 40 1009.9
20260506071803 74 203 2.0 4.0 0.00 0.00 0.00 40 1010.0
20260506071115 74 234 1.0 4.0 0.00 0.00 0.00 41 1009.9
20260506070218 72 249 2.0 4.0 0.00 0.00 0.00 42 1009.9
20260506062014 68 252 2.0 4.0 0.00 0.00 0.00 50 1010.0
20260506060904 68 225 1.0 2.0 0.00 0.00 0.00 49 1010.2
20260506050904 63 264 2.0 4.0 0.00 0.00 0.00 60 1009.8
20260506044713 60 225 0.0 2.0 0.00 0.00 0.00 64 1009.7
20260506043815 60 229 1.0 2.0 0.00 0.00 0.00 64 1009.5
20260506042703 59 225 2.0 2.0 0.00 0.00 0.00 65 1009.5
20260506041803 58 225 1.0 2.0 0.00 0.00 0.00 67 1009.5
20260506041117 58 225 0.0 2.0 0.00 0.00 0.00 67 1009.6